EW0186 Weather Reports


Display with metric or nautical units.
time (UTC)temp
F
wind
direction
speed
MPH
gust
MPH
rain 1hr
in
rain 24hr
in
rain mn
in
humidity
%
barometer
mb
20220808131111 83 26 2.0 6.0 0.00 0.00 0.00 69 1014.6
20220808130612 82 254 2.0 6.0 0.00 0.00 0.00 69 1014.7
20220808130111 82 248 2.0 5.0 0.00 0.00 0.00 68 1014.7
20220808125611 82 223 1.0 5.0 0.00 0.00 0.00 68 1014.8
20220808125111 81 61 1.0 5.0 0.00 0.00 0.00 67 1014.8
20220808124611 81 243 1.0 5.0 0.00 0.00 0.00 66 1014.8
20220808124111 80 57 2.0 8.0 0.00 0.00 0.00 65 1014.8
20220808123612 80 266 1.0 8.0 0.00 0.00 0.00 64 1014.9
20220808123111 80 238 3.0 7.0 0.00 0.00 0.00 63 1014.9
20220808122611 80 205 1.0 6.0 0.00 0.00 0.00 61 1014.9
20220808122112 79 16 1.0 6.0 0.00 0.00 0.00 58 1015.0
20220808121611 79 100 2.0 3.0 0.00 0.00 0.00 56 1015.1
20220808121111 79 160 1.0 3.0 0.00 0.00 0.00 54 1015.2
20220808120611 78 256 2.0 3.0 0.00 0.00 0.00 50 1015.2
20220808120112 78 51 1.0 3.0 0.00 0.00 0.00 46 1015.1
20220808115612 78 255 1.0 6.0 0.00 0.00 0.00 42 1015.2
20220808115112 77 285 1.0 6.0 0.00 0.00 0.00 38 1015.2
20220808114612 77 283 1.0 5.0 0.00 0.00 0.00 31 1015.2
20220808114111 76 203 1.0 5.0 0.00 0.00 0.00 26 1015.2
20220808113611 76 244 1.0 3.0 0.00 0.00 0.00 20 1015.2
20220808113111 76 275 0.0 3.0 0.00 0.00 0.00 15 1015.2
20220808112611 75 273 1.0 3.0 0.00 0.00 0.00 13 1015.3
20220808112112 75 251 0.0 3.0 0.00 0.00 0.00 13 1015.2
20220808111611 75 251 0.0 3.0 0.00 0.00 0.00 12 1015.3
20220808111111 75 245 0.0 3.0 0.00 0.00 0.00 9 1015.2
20220808110611 75 245 1.0 3.0 0.00 0.00 0.00 8 1015.2
20220808110112 75 243 0.0 3.0 0.00 0.00 0.00 8 1015.2
20220808105611 75 214 1.0 2.0 0.00 0.00 0.00 7 1015.2
20220808105111 74 224 0.0 2.0 0.00 0.00 0.00 7 1015.2
20220808104611 74 224 0.0 2.0 0.00 0.00 0.00 7 1015.2
20220808104111 74 224 0.0 2.0 0.00 0.00 0.00 6 1015.1
20220808103611 74 224 0.0 2.0 0.00 0.00 0.00 5 1015.1
20220808103111 74 226 1.0 2.0 0.00 0.00 0.00 4 1015.1
20220808102611 74 224 0.0 2.0 0.00 0.00 0.00 5 1015.1
20220808102111 74 224 0.0 2.0 0.00 0.00 0.00 5 1015.0
20220808101611 74 238 0.0 1.0 0.00 0.00 0.00 7 1015.1
20220808101112 74 238 0.0 1.0 0.00 0.00 0.00 6 1015.1
20220808095611 74 238 0.0 1.0 0.00 0.00 0.00 9 1014.9
20220808095114 74 238 0.0 1.0 0.00 0.00 0.00 11 1015.0
20220808094111 74 238 0.0 2.0 0.00 0.00 0.00 13 1014.9
20220808093613 74 238 0.0 2.0 0.00 0.00 0.00 14 1014.9
20220808091612 74 238 0.0 1.0 0.00 0.00 0.00 14 1014.9
20220808090620 74 238 0.0 2.0 0.00 0.00 0.00 14 1014.8
20220808084611 74 259 0.0 1.0 0.00 0.00 0.00 14 1015.0
20220808080612 74 236 0.0 2.0 0.00 0.00 0.00 17 1014.9
20220808080119 74 236 0.0 2.0 0.00 0.00 0.00 17 1014.9
20220808075611 74 236 0.0 2.0 0.00 0.00 0.00 18 1014.9
20220808075111 74 236 0.0 2.0 0.00 0.00 0.00 17 1015.0
20220808074611 75 236 0.0 2.0 0.00 0.00 0.00 18 1015.0
20220808074111 75 238 0.0 2.0 0.00 0.00 0.00 18 1015.0
20220808073611 75 253 0.0 3.0 0.00 0.00 0.00 18 1015.0
20220808073111 75 254 1.0 3.0 0.00 0.00 0.00 18 1015.0
20220808072610 75 166 0.0 3.0 0.00 0.00 0.00 18 1015.0
20220808072111 75 166 0.0 3.0 0.00 0.00 0.00 17 1015.0
20220808071611 75 166 0.0 3.0 0.00 0.00 0.00 17 1015.0
20220808071112 75 161 0.0 3.0 0.00 0.00 0.00 18 1015.1
20220808070111 75 242 0.0 2.0 0.00 0.00 0.00 19 1015.2
20220808065611 75 242 1.0 2.0 0.00 0.00 0.00 20 1015.2
20220808064112 75 275 1.0 2.0 0.00 0.00 0.00 22 1015.2
20220808063111 75 283 0.0 3.0 0.00 0.00 0.00 23 1015.3
20220808062611 75 283 0.0 3.0 0.00 0.00 0.00 24 1015.3
20220808062111 75 283 1.0 5.0 0.00 0.00 0.00 23 1015.3
20220808061612 75 292 0.0 5.0 0.00 0.00 0.00 23 1015.3
20220808061111 75 271 0.0 1.0 0.00 0.00 0.00 23 1015.3
20220808060611 75 271 0.0 0.0 0.00 0.00 0.00 24 1015.3
20220808060111 75 271 0.0 2.0 0.00 0.00 0.00 26 1015.3
20220808055611 76 271 0.0 2.0 0.00 0.00 0.00 26 1015.3
20220808055111 76 271 0.0 2.0 0.00 0.00 0.00 27 1015.4
20220808054611 76 271 0.0 2.0 0.00 0.00 0.00 27 1015.4
20220808054111 76 271 0.0 1.0 0.00 0.00 0.00 26 1015.4
20220808053612 76 271 0.0 1.0 0.00 0.00 0.00 26 1015.4
20220808053111 76 271 0.0 1.0 0.00 0.00 0.00 25 1015.4
20220808052611 76 271 0.0 3.0 0.00 0.00 0.00 24 1015.6
20220808052111 76 271 1.0 3.0 0.00 0.00 0.00 22 1015.6
20220808051611 76 271 1.0 3.0 0.00 0.00 0.00 20 1015.8
20220808051111 76 292 0.0 5.0 0.00 0.00 0.00 18 1015.8
20220808050611 76 292 1.0 5.0 0.00 0.00 0.00 18 1015.7
20220808050112 76 194 0.0 3.0 0.00 0.00 0.00 17 1015.8
20220808045611 76 193 0.0 3.0 0.00 0.00 0.00 16 1015.8
20220808045111 76 279 1.0 3.0 0.00 0.00 0.00 15 1015.8
20220808044611 76 286 0.0 3.0 0.00 0.00 0.00 14 1015.8
20220808044110 76 320 0.0 2.0 0.00 0.00 0.00 13 1015.8
20220808043611 76 320 1.0 2.0 0.00 0.00 0.00 15 1015.8
20220808043111 76 322 0.0 3.0 0.00 0.00 0.00 15 1015.8
20220808042611 76 322 0.0 3.0 0.00 0.00 0.00 15 1015.8
20220808042111 76 5 0.0 2.0 0.00 0.00 0.00 15 1015.9
20220808041611 76 5 0.0 1.0 0.00 0.00 0.00 16 1015.9
20220808041111 76 65 0.0 1.0 0.00 0.00 0.00 16 1015.9
20220808040611 76 65 0.0 1.0 0.00 0.00 0.00 19 1015.8
20220808040111 76 65 0.0 1.0 0.00 0.00 0.00 19 1015.8
20220808035611 76 65 0.0 2.0 0.00 0.00 0.00 21 1015.9
20220808035111 76 65 0.0 2.0 0.00 0.00 0.00 22 1016.0
20220808034610 76 65 0.0 2.0 0.00 0.00 0.00 23 1016.0
20220808034111 76 65 0.0 2.0 0.00 0.00 0.00 23 1015.9
20220808033611 77 212 0.0 3.0 0.00 0.00 0.00 24 1015.9
20220808033111 77 215 0.0 3.0 0.00 0.00 0.00 23 1016.0
20220808032611 76 240 0.0 3.0 0.00 0.00 0.00 22 1015.9
20220808032111 76 246 0.0 3.0 0.00 0.00 0.00 23 1015.9
20220808031611 76 251 0.0 3.0 0.00 0.00 0.00 23 1016.0
20220808031111 76 155 0.0 2.0 0.00 0.00 0.00 23 1015.9
20220808030611 76 155 0.0 2.0 0.00 0.00 0.00 22 1015.8
20220808030111 76 154 0.0 2.0 0.00 0.00 0.00 20 1015.8
20220808025611 76 195 0.0 2.0 0.00 0.00 0.00 20 1015.8
20220808025111 76 248 0.0 1.0 0.00 0.00 0.00 19 1015.8
20220808024611 76 249 0.0 1.0 0.00 0.00 0.00 18 1015.9
20220808024110 76 250 0.0 5.0 0.00 0.00 0.00 19 1015.9
20220808023611 76 250 0.0 5.0 0.00 0.00 0.00 20 1016.1
20220808023110 76 247 1.0 5.0 0.00 0.00 0.00 21 1016.1
20220808022611 76 222 0.0 3.0 0.00 0.00 0.00 22 1016.2
20220808022111 76 222 0.0 3.0 0.00 0.00 0.00 26 1016.3
20220808021611 76 222 0.0 3.0 0.00 0.00 0.00 29 1016.3
20220808021111 76 223 0.0 0.0 0.00 0.00 0.00 31 1016.3
20220808020610 76 223 0.0 0.0 0.00 0.00 0.00 31 1016.4
20220808020111 76 223 0.0 0.0 0.00 0.00 0.00 31 1016.4
20220808015611 76 223 0.0 0.0 0.00 0.00 0.00 32 1016.3
20220808015110 76 223 0.0 0.0 0.00 0.00 0.00 33 1016.3
20220808014611 76 223 0.0 1.0 0.00 0.00 0.00 35 1016.3
20220808014111 76 223 0.0 1.0 0.00 0.00 0.00 37 1016.4
20220808013611 76 223 0.0 1.0 0.00 0.00 0.00 39 1016.3
20220808013111 76 223 0.0 1.0 0.00 0.00 0.00 39 1016.4
20220808012611 76 223 0.0 0.0 0.00 0.00 0.00 40 1016.4
20220808012110 76 223 0.0 2.0 0.00 0.00 0.00 42 1016.3
20220808011610 76 223 1.0 2.0 0.00 0.00 0.00 43 1016.4
20220808011111 76 217 0.0 2.0 0.00 0.00 0.00 45 1016.4
20220808010610 77 217 0.0 2.0 0.00 0.00 0.00 48 1016.4
20220808010110 77 217 0.0 1.0 0.00 0.00 0.00 50 1016.4
20220808005611 77 217 0.0 1.0 0.00 0.00 0.00 53 1016.3
20220808005111 77 217 0.0 3.0 0.00 0.00 0.00 54 1016.2
20220808004611 77 217 0.0 3.0 0.00 0.00 0.00 56 1016.2
20220808004111 77 217 1.0 3.0 0.00 0.00 0.00 58 1016.3
20220808003611 77 230 0.0 2.0 0.00 0.00 0.00 61 1016.2
20220808003111 77 232 0.0 3.0 0.00 0.00 0.00 63 1016.3
20220808002611 78 232 1.0 3.0 0.00 0.00 0.00 64 1016.2
20220808002111 78 163 0.0 3.0 0.00 0.00 0.00 65 1016.2
20220808001611 78 168 0.0 3.0 0.00 0.00 0.00 67 1016.2
20220808001110 78 329 0.0 3.0 0.00 0.00 0.00 68 1016.2
20220808000611 78 338 1.0 3.0 0.00 0.00 0.00 68 1016.2
20220808000111 78 77 1.0 6.0 0.00 0.00 0.00 69 1016.3
20220807235611 79 227 1.0 6.0 0.00 0.00 0.00 70 1016.5
20220807235111 79 231 1.0 3.0 0.00 0.00 0.00 70 1016.5
20220807234611 79 337 1.0 3.0 0.00 0.00 0.00 70 1016.5
20220807234111 79 251 0.0 5.0 0.00 0.00 0.00 70 1016.3
20220807233611 79 251 1.0 6.0 0.00 0.00 0.00 70 1016.1
20220807233111 80 280 2.0 8.0 0.00 0.00 0.00 70 1016.1
20220807232611 81 272 2.0 12.0 0.00 0.00 0.00 70 1016.2
20220807232111 83 350 2.0 12.0 0.00 0.00 0.00 69 1016.1
20220807231611 85 139 5.0 15.0 0.00 0.00 0.00 67 1016.2
20220807231111 87 245 5.0 17.0 0.00 0.00 0.00 63 1015.8
20220807230610 89 268 6.0 17.0 0.00 0.00 0.00 59 1015.2
20220807230111 90 275 3.0 10.0 0.00 0.00 0.00 57 1015.2
20220807225611 90 277 1.0 8.0 0.00 0.00 0.00 57 1015.2
20220807225111 90 270 2.0 8.0 0.00 0.00 0.00 56 1014.9
20220807224611 90 265 1.0 5.0 0.00 0.00 0.00 56 1014.8
20220807224111 91 237 1.0 8.0 0.00 0.00 0.00 55 1014.8
20220807223611 91 265 2.0 8.0 0.00 0.00 0.00 54 1014.8
20220807223111 91 288 1.0 5.0 0.00 0.00 0.00 55 1014.7
20220807222611 91 186 1.0 7.0 0.00 0.00 0.00 54 1014.7
20220807222111 92 239 3.0 7.0 0.00 0.00 0.00 54 1014.9
20220807221611 92 267 2.0 5.0 0.00 0.00 0.00 53 1014.8
20220807221111 92 279 1.0 7.0 0.00 0.00 0.00 53 1014.8
20220807220611 92 272 3.0 10.0 0.00 0.00 0.00 52 1014.8
20220807220111 93 266 4.0 10.0 0.00 0.00 0.00 52 1014.8
20220807215610 94 313 4.0 9.0 0.00 0.00 0.00 51 1014.8
20220807215111 94 261 2.0 5.0 0.00 0.00 0.00 50 1014.9
20220807214611 94 238 2.0 6.0 0.00 0.00 0.00 51 1014.8
20220807214110 94 231 2.0 6.0 0.00 0.00 0.00 51 1014.9
20220807213611 94 161 1.0 6.0 0.00 0.00 0.00 51 1014.9
20220807213111 94 292 1.0 10.0 0.00 0.00 0.00 50 1015.0
20220807212610 94 2 2.0 10.0 0.00 0.00 0.00 49 1015.0
20220807212110 95 175 2.0 9.0 0.00 0.00 0.00 49 1015.0
20220807211611 95 236 3.0 9.0 0.00 0.00 0.00 47 1014.9
20220807211111 95 275 2.0 8.0 0.00 0.00 0.00 48 1014.9
20220807210610 95 252 2.0 12.0 0.00 0.00 0.00 49 1014.9
20220807210111 94 96 2.0 12.0 0.00 0.00 0.00 49 1015.0
20220807205612 94 132 2.0 8.0 0.00 0.00 0.00 50 1015.0
20220807205111 93 261 2.0 10.0 0.00 0.00 0.00 50 1015.0
20220807204610 93 254 2.0 10.0 0.00 0.00 0.00 50 1015.1
20220807204111 94 261 5.0 10.0 0.00 0.00 0.00 49 1015.1
20220807203610 94 246 2.0 12.0 0.00 0.00 0.00 50 1015.1
20220807203111 94 270 3.0 12.0 0.00 0.00 0.00 49 1015.1
20220807202610 94 347 3.0 12.0 0.00 0.00 0.00 48 1015.1
20220807202111 95 306 3.0 10.0 0.00 0.00 0.00 47 1015.1
20220807201610 95 79 2.0 10.0 0.00 0.00 0.00 47 1015.1
20220807201111 95 210 1.0 10.0 0.00 0.00 0.00 48 1015.1
20220807200611 95 256 4.0 10.0 0.00 0.00 0.00 48 1015.3
20220807200110 95 287 3.0 14.0 0.00 0.00 0.00 48 1015.3
20220807195611 95 300 2.0 14.0 0.00 0.00 0.00 47 1015.5
20220807195110 95 241 2.0 12.0 0.00 0.00 0.00 47 1015.5
20220807194611 95 328 3.0 12.0 0.00 0.00 0.00 48 1015.5
20220807194111 95 281 2.0 18.0 0.00 0.00 0.00 48 1015.5
20220807193610 94 196 3.0 18.0 0.00 0.00 0.00 47 1015.6
20220807193111 95 293 6.0 18.0 0.00 0.00 0.00 47 1015.6
20220807192610 94 176 6.0 12.0 0.00 0.00 0.00 48 1015.6
20220807192111 94 218 2.0 12.0 0.00 0.00 0.00 48 1015.7
20220807191611 94 294 3.0 12.0 0.00 0.00 0.00 48 1015.8
20220807191110 94 101 3.0 15.0 0.00 0.00 0.00 50 1015.9
20220807190611 94 287 4.0 15.0 0.00 0.00 0.00 49 1015.8
20220807190110 94 245 3.0 10.0 0.00 0.00 0.00 49 1015.7
20220807185610 94 355 3.0 12.0 0.00 0.00 0.00 50 1015.9
20220807185111 94 229 2.0 12.0 0.00 0.00 0.00 50 1015.9
20220807184611 94 191 1.0 10.0 0.00 0.00 0.00 50 1016.0
20220807184111 94 287 3.0 14.0 0.00 0.00 0.00 50 1016.1
20220807183610 94 257 5.0 14.0 0.00 0.00 0.00 49 1016.1
20220807183110 94 262 2.0 12.0 0.00 0.00 0.00 50 1016.2
20220807182610 94 49 2.0 13.0 0.00 0.00 0.00 52 1016.1
20220807182111 94 150 5.0 13.0 0.00 0.00 0.00 51 1016.2
20220807181610 94 280 5.0 12.0 0.00 0.00 0.00 51 1016.1
20220807181110 94 123 5.0 12.0 0.00 0.00 0.00 52 1016.4
20220807180610 94 111 3.0 13.0 0.00 0.00 0.00 52 1016.4
20220807180111 94 67 2.0 13.0 0.00 0.00 0.00 53 1016.4
20220807175611 94 262 3.0 13.0 0.00 0.00 0.00 52 1016.3
20220807175111 94 253 3.0 10.0 0.00 0.00 0.00 52 1016.5
20220807174611 93 77 2.0 12.0 0.00 0.00 0.00 54 1016.5
20220807174112 93 174 2.0 12.0 0.00 0.00 0.00 53 1016.5
20220807173611 94 72 3.0 9.0 0.00 0.00 0.00 52 1016.6
20220807173110 94 270 3.0 9.0 0.00 0.00 0.00 53 1016.8
20220807172611 94 33 3.0 8.0 0.00 0.00 0.00 53 1017.0
20220807172111 94 282 2.0 9.0 0.00 0.00 0.00 54 1017.0
20220807171611 93 347 3.0 14.0 0.00 0.00 0.00 55 1017.0
20220807171110 92 172 3.0 14.0 0.00 0.00 0.00 55 1017.0
20220807170611 92 273 3.0 13.0 0.00 0.00 0.00 56 1017.1
20220807170111 93 254 3.0 10.0 0.00 0.00 0.00 56 1017.2
20220807165610 92 218 2.0 10.0 0.00 0.00 0.00 57 1017.2
20220807165111 92 282 3.0 12.0 0.00 0.00 0.00 57 1017.2
20220807164610 92 254 1.0 12.0 0.00 0.00 0.00 57 1017.3
20220807164110 92 325 5.0 8.0 0.00 0.00 0.00 57 1017.6
20220807163610 92 349 2.0 10.0 0.00 0.00 0.00 59 1017.6
20220807163111 91 243 3.0 12.0 0.00 0.00 0.00 57 1017.6
20220807162610 91 268 5.0 12.0 0.00 0.00 0.00 57 1017.8
20220807162110 92 197 3.0 10.0 0.00 0.00 0.00 58 1017.8
20220807161610 91 107 3.0 8.0 0.00 0.00 0.00 58 1017.8
20220807161111 91 205 4.0 10.0 0.00 0.00 0.00 58 1017.9
20220807160611 91 268 3.0 10.0 0.00 0.00 0.00 58 1018.0
20220807160111 91 174 1.0 8.0 0.00 0.00 0.00 59 1018.1
20220807155610 91 286 3.0 10.0 0.00 0.00 0.00 60 1018.1
20220807155110 91 17 2.0 10.0 0.00 0.00 0.00 58 1018.4
20220807154611 90 53 2.0 9.0 0.00 0.00 0.00 61 1018.4
20220807154111 90 170 2.0 9.0 0.00 0.00 0.00 60 1018.4
20220807153610 90 267 2.0 9.0 0.00 0.00 0.00 62 1018.4
20220807153111 89 288 2.0 9.0 0.00 0.00 0.00 62 1018.6
20220807152611 89 198 1.0 9.0 0.00 0.00 0.00 62 1018.6
20220807152110 90 263 1.0 7.0 0.00 0.00 0.00 61 1018.7
20220807151610 90 209 2.0 8.0 0.00 0.00 0.00 61 1018.8
20220807151110 90 265 2.0 8.0 0.00 0.00 0.00 62 1018.9
20220807150610 90 56 2.0 8.0 0.00 0.00 0.00 60 1019.0
20220807150111 90 255 3.0 8.0 0.00 0.00 0.00 62 1019.1
20220807145610 89 46 2.0 8.0 0.00 0.00 0.00 62 1019.2
20220807145110 89 277 2.0 7.0 0.00 0.00 0.00 63 1019.2
20220807144611 88 297 1.0 12.0 0.00 0.00 0.00 65 1019.3
20220807144110 88 266 2.0 12.0 0.00 0.00 0.00 65 1019.5
20220807143611 88 230 2.0 7.0 0.00 0.00 0.00 65 1019.5
20220807143110 87 74 2.0 7.0 0.00 0.00 0.00 66 1019.5
20220807142611 87 284 3.0 8.0 0.00 0.00 0.00 66 1019.6
20220807142111 87 325 2.0 8.0 0.00 0.00 0.00 67 1019.6
20220807141610 87 303 2.0 8.0 0.00 0.00 0.00 68 1019.5
20220807141110 86 273 2.0 6.0 0.00 0.00 0.00 68 1019.5
20220807140610 86 223 2.0 6.0 0.00 0.00 0.00 68 1019.5
20220807140110 86 222 2.0 6.0 0.00 0.00 0.00 68 1019.5
20220807135611 86 225 2.0 6.0 0.00 0.00 0.00 68 1019.5
20220807135110 85 322 1.0 6.0 0.00 0.00 0.00 69 1019.5
20220807134610 85 247 2.0 8.0 0.00 0.00 0.00 69 1019.5
20220807134110 85 287 3.0 12.0 0.00 0.00 0.00 69 1019.5
20220807133610 85 248 3.0 12.0 0.00 0.00 0.00 69 1019.5
20220807133110 85 271 2.0 12.0 0.00 0.00 0.00 70 1019.6
20220807132610 85 265 1.0 3.0 0.00 0.00 0.00 70 1019.7
20220807132110 84 263 0.0 6.0 0.00 0.00 0.00 70 1019.7
20220807131610 83 263 2.0 15.0 0.00 0.00 0.00 70 1019.7